Weather History for Crookston, MN

Change the Weather History Date:

Wednesday, December 18, 2013

  Actual Average Record
Temperature  
Mean Temperature 10 °F -  
Max Temperature 19 °F 17 °F 50 °F (2011)
Min Temperature 0 °F 3 °F -14 °F (2008)
Degree Days  
Heating Degree Days 56    
Moisture  
Dew Point 8 °F    
Average Humidity 82    
Maximum Humidity 92    
Minimum Humidity 68    
Precipitation  
Precipitation 0.00 in - - ()
Sea Level Pressure  
Sea Level Pressure 29.72 in    
Wind  
Wind Speed 14 mph (SW)    
Max Wind Speed 30 mph    
Max Gust Speed 37 mph    
Visibility 8 miles    
Events Snow    
Averages and records for this station are not official NWS values.
T = Trace of Precipitation, MM = Missing Value Source: NWS Daily Summary

Daily Weather History Graph

Daily Weather History Graph

Search for Another Location

Airport:

Trip Planner

Search our weather history database for the weather conditions in past years. The results will help you decide how hot, cold, wet, or windy it might be!

Date:

Astronomy

Dec. 18, 2013 Rise Set
Actual Time 8:11 AM CST 4:35 PM CST
Civil Twilight 7:35 AM CST 5:11 PM CST
Nautical Twilight 6:55 AM CST 5:51 PM CST
Astronomical Twilight 6:17 AM CST 6:28 PM CST
Moon 6:14 PM CST (12/18) 8:45 AM CST (12/18)
Length of Visible Light 9h 36m
Length of Day
8h 23m
Full, 98% of the Moon is Illuminated
Dec 18
Full
Dec 25
Last Quarter
Jan 1
New
Jan 7
First Quarter
Jan 15
Full

Hourly Weather History & Observations

Time (CST) Temp. Windchill Dew Point Humidity Pressure Visibility Wind Dir Wind Speed Gust Speed Precip Events Conditions
12:15 AM 5.0 °F -9.1 °F -0.4 °F 78% 29.90 in 10.0 mi SSE 9.2 mph - N/A   Clear
12:34 AM 5.0 °F -9.1 °F -0.4 °F 78% 29.88 in 10.0 mi SSE 9.2 mph - N/A   Clear
12:54 AM 5.0 °F -10.8 °F 1.4 °F 85% 29.86 in 10.0 mi SSE 11.5 mph - N/A   Clear
1:15 AM 6.8 °F -8.6 °F 1.4 °F 79% 29.85 in 10.0 mi SSE 11.5 mph - N/A   Clear
1:34 AM 8.6 °F -7.0 °F 3.2 °F 79% 29.83 in 10.0 mi SSE 12.7 mph - N/A   Clear
1:54 AM 8.6 °F -7.7 °F 5.0 °F 85% 29.80 in 10.0 mi SSE 13.8 mph - N/A   Clear
2:15 AM 10.4 °F -6.0 °F 6.8 °F 85% 29.79 in 10.0 mi SSE 15.0 mph - N/A   Clear
2:34 AM 12.2 °F -4.8 °F 8.6 °F 85% 29.77 in 10.0 mi South 17.3 mph - N/A   Clear
2:54 AM 14.0 °F -2.0 °F 10.4 °F 86% 29.75 in 10.0 mi SSE 16.1 mph - N/A   Clear
3:14 AM 15.8 °F -0.2 °F 10.4 °F 79% 29.74 in 10.0 mi SSE 17.3 mph - N/A   Clear
3:34 AM 15.8 °F 0.3 °F 10.4 °F 79% 29.72 in 10.0 mi SSE 16.1 mph - N/A   Clear
3:55 AM 15.8 °F 0.9 °F 10.4 °F 79% 29.71 in 10.0 mi SSE 15.0 mph - N/A   Clear
4:14 AM 15.8 °F 0.9 °F 10.4 °F 79% 29.71 in 10.0 mi SSE 15.0 mph - N/A   Clear
4:34 AM 15.8 °F 0.3 °F 10.4 °F 79% 29.69 in 10.0 mi SSE 16.1 mph - N/A   Clear
4:55 AM 15.8 °F 1.4 °F 10.4 °F 79% 29.67 in 10.0 mi SE 13.8 mph - N/A   Clear
5:14 AM 15.8 °F 2.1 °F 8.6 °F 73% 29.67 in 10.0 mi SE 12.7 mph - N/A   Clear
5:34 AM 15.8 °F 1.4 °F 8.6 °F 73% 29.65 in 10.0 mi SSE 13.8 mph - N/A   Clear
5:55 AM 15.8 °F 0.9 °F 8.6 °F 73% 29.62 in 10.0 mi SSE 15.0 mph - N/A   Clear
6:14 AM 17.6 °F 2.2 °F 10.4 °F 73% 29.62 in 10.0 mi South 17.3 mph - N/A   Clear
6:34 AM 19.4 °F 4.1 °F 10.4 °F 68% 29.60 in 10.0 mi South 18.4 mph - N/A   Clear
6:55 AM 17.6 °F 3.2 °F 10.4 °F 73% 29.60 in 10.0 mi South 15.0 mph - N/A   Clear
7:14 AM 17.6 °F 4.3 °F 10.4 °F 73% 29.61 in 10.0 mi South 12.7 mph - N/A   Clear
7:34 AM 17.6 °F 4.3 °F 10.4 °F 73% 29.59 in 10.0 mi South 12.7 mph - N/A   Clear
7:55 AM 15.8 °F 3.4 °F 10.4 °F 79% 29.59 in 10.0 mi South 10.4 mph - N/A   Clear
8:14 AM 15.8 °F 3.4 °F 10.4 °F 79% 29.59 in 10.0 mi South 10.4 mph - N/A   Clear
8:35 AM 15.8 °F 2.1 °F 10.4 °F 79% 29.58 in 10.0 mi South 12.7 mph - N/A   Clear
8:55 AM 17.6 °F 5.0 °F 10.4 °F 73% 29.58 in 10.0 mi South 11.5 mph - N/A   Clear
9:14 AM 17.6 °F 4.3 °F 10.4 °F 73% 29.57 in 10.0 mi South 12.7 mph - N/A   Clear
9:35 AM 17.6 °F 6.4 °F 12.2 °F 79% 29.57 in 10.0 mi South 9.2 mph - N/A   Clear
9:54 AM 17.6 °F 5.7 °F 12.2 °F 79% 29.58 in 10.0 mi South 10.4 mph - N/A   Clear
10:14 AM 17.6 °F 5.7 °F 12.2 °F 79% 29.58 in 10.0 mi SSW 10.4 mph - N/A   Clear
10:35 AM 17.6 °F 5.0 °F 12.2 °F 79% 29.58 in 10.0 mi SSW 11.5 mph - N/A   Clear
10:54 AM 17.6 °F 5.0 °F 12.2 °F 79% 29.60 in 10.0 mi SW 11.5 mph - N/A   Clear
11:14 AM 17.6 °F 6.4 °F 12.2 °F 79% 29.60 in 10.0 mi SW 9.2 mph - N/A   Clear
11:34 AM 17.6 °F 8.2 °F 14.0 °F 86% 29.60 in 10.0 mi SW 6.9 mph - N/A   Clear
11:54 AM 17.6 °F 10.7 °F 14.0 °F 86% 29.59 in 10.0 mi SW 4.6 mph - N/A   Clear
12:15 PM 17.6 °F 9.3 °F 14.0 °F 86% 29.58 in 10.0 mi SW 5.8 mph - N/A   Clear
12:34 PM 19.4 °F 14.3 °F 14.0 °F 80% 29.57 in 10.0 mi SW 3.5 mph - N/A   Clear
12:54 PM 19.4 °F - 14.0 °F 80% 29.56 in 10.0 mi Calm Calm - N/A   Clear
1:15 PM 19.4 °F - 15.8 °F 86% 29.56 in 10.0 mi Calm Calm - N/A   Scattered Clouds
1:34 PM 19.4 °F 12.8 °F 15.8 °F 86% 29.57 in 10.0 mi WSW 4.6 mph - N/A   Scattered Clouds
1:54 PM 19.4 °F 12.8 °F 15.8 °F 86% 29.57 in 10.0 mi WSW 4.6 mph - N/A   Clear
2:14 PM 17.6 °F 7.3 °F 14.0 °F 86% 29.59 in 10.0 mi WNW 8.1 mph - N/A   Clear
2:34 PM 17.6 °F 4.3 °F 14.0 °F 86% 29.61 in 10.0 mi NW 12.7 mph - N/A   Clear
2:55 PM 17.6 °F 3.7 °F 12.2 °F 79% 29.63 in 10.0 mi NNW 13.8 mph - N/A   Clear
3:14 PM 17.6 °F 5.0 °F 12.2 °F 79% 29.64 in 10.0 mi NNW 11.5 mph - N/A   Scattered Clouds
3:34 PM 17.6 °F 1.7 °F 12.2 °F 79% 29.65 in 10.0 mi North 18.4 mph - N/A   Overcast
3:55 PM 17.6 °F 3.2 °F 14.0 °F 86% 29.65 in 10.0 mi North 15.0 mph - N/A   Overcast
4:14 PM 17.6 °F 5.0 °F 12.2 °F 79% 29.67 in 10.0 mi North 11.5 mph - N/A   Overcast
4:35 PM 15.8 °F -0.2 °F 12.2 °F 86% 29.68 in 10.0 mi North 17.3 mph - N/A   Mostly Cloudy
4:54 PM 15.8 °F -1.5 °F 10.4 °F 79% 29.70 in 10.0 mi North 20.7 mph - N/A   Mostly Cloudy
5:15 PM 12.2 °F -7.5 °F 10.4 °F 92% 29.72 in 3.0 mi North 24.2 mph 35.7 mph N/A   Mostly Cloudy
5:35 PM 12.2 °F -8.2 °F 8.6 °F 85% 29.74 in 2.0 mi North 26.5 mph 32.2 mph N/A Snow Light Snow
5:54 PM 10.4 °F -11.7 °F 8.6 °F 92% 29.76 in 1.5 mi North 29.9 mph 33.4 mph N/A Snow Light Snow
6:15 PM 10.4 °F -11.4 °F 6.8 °F 85% 29.77 in 1.2 mi North 28.8 mph 34.5 mph N/A Snow Light Snow
6:34 PM 10.4 °F -10.3 °F 6.8 °F 85% 29.78 in 1.2 mi North 25.3 mph 32.2 mph N/A Snow Light Snow
6:54 PM 8.6 °F -14.1 °F 6.8 °F 92% 29.80 in 1.2 mi North 29.9 mph 36.8 mph N/A Snow Light Snow
7:14 PM 8.6 °F -13.4 °F 6.8 °F 92% 29.82 in 1.8 mi North 27.6 mph 32.2 mph N/A   Overcast
7:34 PM 8.6 °F -13.4 °F 6.8 °F 92% 29.84 in 1.5 mi North 27.6 mph 35.7 mph N/A   Overcast
7:55 PM 8.6 °F -12.7 °F 6.8 °F 92% 29.85 in 2.5 mi North 25.3 mph 28.8 mph N/A Snow Light Snow
8:14 PM 8.6 °F -12.7 °F 6.8 °F 92% 29.87 in 2.0 mi North 25.3 mph 32.2 mph N/A Snow Light Snow
8:34 PM 8.6 °F -12.7 °F 5.0 °F 85% 29.88 in 2.0 mi North 25.3 mph 32.2 mph N/A   Overcast
8:55 PM 8.6 °F -11.9 °F 3.2 °F 79% 29.91 in 2.0 mi North 23.0 mph - N/A   Overcast
9:14 PM 6.8 °F -15.5 °F 3.2 °F 85% 29.92 in 2.0 mi North 26.5 mph 31.1 mph N/A   Overcast
9:34 PM 5.0 °F -16.7 °F 1.4 °F 85% 29.93 in 1.5 mi North 23.0 mph - N/A   Overcast
9:55 PM 5.0 °F -17.1 °F 1.4 °F 85% 29.95 in 1.5 mi NNW 24.2 mph - N/A   Overcast
10:14 PM 3.2 °F -19.0 °F -0.4 °F 85% 29.97 in 1.0 mi NNW 23.0 mph - N/A   Overcast
10:34 PM 1.4 °F -22.7 °F -0.4 °F 92% 29.98 in 1.0 mi North 26.5 mph - N/A   Overcast
10:55 PM 1.4 °F -21.9 °F -2.2 °F 85% 30.00 in 1.5 mi North 24.2 mph - N/A   Overcast
11:14 PM 1.4 °F -19.9 °F -2.2 °F 85% 30.02 in 1.5 mi North 19.6 mph 27.6 mph N/A   Overcast
11:34 PM -0.4 °F -22.3 °F -4.0 °F 85% 30.03 in 2.0 mi North 19.6 mph - N/A   Overcast
11:55 PM -0.4 °F -21.7 °F -4.0 °F 85% 30.04 in 2.0 mi North 18.4 mph - N/A   Overcast